Wind_Speed
19 20 22 23 23 27 36 42 41 42 48 52 52 50 49 45 44 42 40 39 39 31 32 28 26 25 24 21 18 15 14 15 12 7 8 10 11 11 17 23 24 22 20 22 24
24 24 25 27 28 30 29 32 38 42 42 49 53 53 53 50 48 46 44 42 42 38 34 32 28 26 25 20 20 18 17 17 14 9 11 7 8 11 15 17 22 24 22 20 20
21 27 30 32 33 33 35 35 35 39 43 45 52 55 55 54 51 52 49 47 46 45 38 34 34 28 27 23 23 21 19 15 14 12 12 9 3 9 12 15 18 22 24 22 18
18 23 27 32 36 39 39 40 40 40 42 47 50 54 57 56 54 55 54 51 51 51 47 41 37 35 30 27 24 24 22 19 18 15 15 14 7 5 7 11 14 19 21 24 21
23 19 21 28 35 38 43 45 45 45 45 46 51 55 59 59 57 56 54 55 54 54 54 49 45 39 38 32 28 26 26 25 19 20 19 16 14 7 6 7 9 13 16 17 23
30 28 25 19 25 33 39 46 49 51 50 50 50 54 59 60 61 60 58 56 56 57 57 54 51 45 42 38 34 30 27 28 25 24 18 18 18 12 9 1 3 6 10 13 16
33 35 28 25 21 19 33 40 45 53 55 56 55 55 55 62 63 62 60 59 57 58 60 60 54 53 49 47 44 38 34 29 30 24 21 25 23 17 12 5 3 3 7 8 10
37 38 34 33 27 18 21 26 38 45 50 57 61 61 59 59 61 65 66 63 62 60 60 60 59 57 57 52 50 48 41 37 29 27 27 20 17 16 16 8 4 1 4 5 9
46 41 43 38 34 28 24 20 25 36 45 49 58 65 66 65 63 63 65 67 67 64 62 61 61 62 60 59 55 52 49 45 38 34 35 30 27 18 13 9 3 3 2 1 5
51 50 44 40 37 35 30 28 27 27 36 47 51 57 66 70 70 66 65 66 68 69 66 64 64 66 65 63 61 57 55 51 46 42 40 35 30 25 25 19 14 11 5 5 4
52 56 52 47 44 40 38 35 33 31 32 37 46 53 57 66 72 73 70 68 67 70 71 69 68 70 70 66 64 61 60 55 52 50 44 44 39 32 27 23 20 17 7 8 8
55 55 63 49 42 44 43 41 40 40 36 37 39 46 54 57 66 73 75 74 70 69 71 74 75 73 72 71 68 65 63 61 56 54 50 47 44 41 36 30 26 23 20 13 12
54 57 66 60 42 37 43 46 44 44 42 39 41 40 46 56 58 66 73 77 76 73 73 74 78 76 75 74 72 70 68 65 61 58 55 52 48 43 40 36 31 27 22 19 16
54 58 64 62 54 38 36 45 50 48 47 45 44 43 42 47 55 60 64 73 77 79 78 77 77 79 79 78 77 74 75 71 66 62 60 57 51 47 46 39 35 32 30 25 19
56 59 63 69 64 47 38 43 48 53 49 45 44 44 45 43 46 55 61 65 72 76 80 82 79 79 81 81 81 80 78 76 71 68 67 61 56 53 50 46 42 36 34 32 23
61 64 65 67 67 49 42 37 47 52 51 47 43 44 43 41 43 46 55 63 65 73 77 83 83 82 81 84 84 82 81 77 76 73 71 66 60 55 56 55 48 43 41 37 30
64 68 71 70 64 68 45 36 39 46 49 45 43 41 40 39 44 43 41 54 64 67 73 78 85 87 85 83 86 88 84 81 78 77 72 70 63 60 61 60 53 48 44 41 38
68 69 72 70 69 75 45 38 33 40 49 47 42 36 32 36 43 43 39 38 55 64 66 73 79 89 90 87 86 90 91 86 81 78 78 72 66 64 67 63 58 52 49 47 44
71 75 78 77 73 74 61 33 26 31 39 42 42 36 35 36 41 42 39 37 38 55 66 68 74 82 91 93 91 88 90 91 87 84 81 75 72 69 69 66 62 58 55 53 49
74 79 78 79 79 66 56 42 25 26 32 37 38 37 36 40 40 37 37 38 37 42 56 66 70 71 82 94 97 93 92 94 91 87 83 79 73 72 75 70 67 64 62 58 53
78 83 80 78 76 64 54 40 28 27 33 33 37 37 40 41 44 43 42 43 44 41 48 58 66 69 72 84 97 99 96 94 93 90 86 83 79 81 77 74 71 69 65 61 58
78 81 82 74 74 61 54 39 33 27 29 38 39 39 40 45 44 44 40 43 47 48 43 54 60 64 66 75 88 97 101 98 95 92 90 89 86 85 81 79 79 76 71 67 64
80 82 80 75 79 62 54 41 32 31 29 36 37 38 39 42 43 44 44 48 50 51 50 49 60 62 63 66 79 92 101 103 98 94 93 93 92 91 88 83 80 79 76 73 69
84 83 82 76 76 63 54 42 33 31 32 36 42 44 45 43 44 46 47 51 53 51 52 53 59 66 66 66 71 83 94 104 104 99 95 95 97 96 94 88 84 81 79 76 71
85 84 84 81 79 65 55 43 35 29 31 39 44 48 48 50 50 50 51 51 52 54 57 58 58 65 70 69 69 74 85 97 106 104 99 97 97 96 95 93 90 85 80 78 76
90 88 90 88 84 70 51 43 37 32 28 31 38 43 46 44 47 49 51 54 58 60 61 62 65 67 71 74 74 72 78 89 100 106 103 100 97 94 97 96 94 90 86 82 78
92 92 93 90 81 68 52 45 40 36 32 31 35 41 45 52 55 56 53 51 52 54 60 64 71 74 76 79 79 77 74 79 90 101 107 105 97 93 94 96 97 95 90 87 83
Wind_Direction
248 244 244 245 238 230 229 230 233 233 228 224 222 220 221 217 217 215 217 216 219 216 211 212 203 200 191 185 191 185 188 168 155 105 92 103 72 55 69 59 50 55 59 58 68
251 246 240 238 240 241 235 231 232 235 232 228 225 224 223 220 219 219 217 216 220 218 214 213 209 206 200 194 197 181 188 178 173 157 122 103 88 72 72 64 59 51 58 59 57
258 254 249 243 239 238 238 236 230 231 232 229 227 226 226 224 223 221 219 219 219 220 216 214 217 214 212 205 198 182 192 201 177 155 141 129 156 92 65 53 60 58 49 62 61
292 266 256 251 248 242 239 239 236 232 229 228 226 226 225 226 226 225 222 220 222 221 220 222 217 218 215 215 206 202 190 201 186 178 163 149 180 140 78 47 45 56 53 50 60
22 357 296 270 252 247 245 239 239 236 233 228 227 226 225 228 227 227 226 224 221 224 223 223 222 219 217 218 215 210 200 201 199 198 197 164 176 180 114 69 47 41 60 55 56
13 10 0 341 281 263 254 247 242 239 237 235 230 226 226 227 227 227 227 225 224 222 225 224 224 220 218 215 216 218 209 204 204 202 206 192 181 182 154 95 61 51 48 51 57
6 359 355 346 335 291 265 254 248 244 240 238 236 231 227 227 226 226 225 226 223 226 224 225 221 220 219 217 221 220 219 211 204 209 183 170 177 167 156 140 173 77 46 29 37
359 353 347 345 327 307 282 264 256 247 244 241 238 235 233 229 227 226 225 224 225 224 225 223 222 219 222 220 215 221 224 219 208 200 180 180 168 167 162 173 150 155 60 26 13
3 358 353 339 328 313 285 274 268 256 249 243 241 239 235 233 230 227 225 223 222 224 226 225 224 221 220 220 219 220 220 225 224 214 205 209 225 219 200 193 216 232 267 344 7
0 354 342 332 321 307 291 278 270 260 251 247 241 239 238 236 232 230 227 224 222 222 223 226 226 225 220 219 219 220 222 224 224 223 218 221 224 221 231 239 237 216 232 286 314
0 357 343 333 313 303 290 278 262 261 253 246 244 242 238 236 234 231 229 226 222 221 222 223 224 225 224 218 219 217 223 223 224 223 226 232 236 233 230 237 232 228 214 241 265
359 354 352 341 319 302 289 281 265 258 258 254 242 244 242 238 233 232 230 227 225 221 221 222 222 224 225 222 218 217 218 221 222 225 227 230 232 233 234 233 232 231 238 228 240
355 352 351 353 337 304 289 275 267 261 259 256 254 245 243 240 237 232 230 229 225 223 222 221 223 222 224 225 221 219 217 218 220 224 226 228 231 233 232 239 242 238 245 236 235
353 353 354 356 343 317 288 276 266 260 257 258 256 256 249 242 239 235 230 229 227 224 223 222 221 222 222 223 225 221 220 218 219 218 224 226 226 230 237 234 237 232 237 245 229
350 350 351 352 347 331 300 275 265 260 257 254 254 255 254 249 241 238 233 230 227 226 223 223 222 221 221 223 223 225 221 220 218 217 219 224 227 227 231 230 228 230 228 240 235
348 353 352 353 355 343 317 287 269 262 257 254 254 255 255 251 243 242 242 233 229 227 225 223 222 221 221 221 223 225 225 221 220 218 220 221 224 226 230 233 231 229 232 236 243
351 353 351 354 355 354 337 291 271 261 252 251 253 256 253 246 244 246 246 238 234 229 226 224 221 222 221 221 222 224 224 224 221 221 219 222 221 224 230 231 231 231 230 233 236
349 348 347 352 353 357 344 311 272 258 249 249 252 246 247 246 243 248 249 246 233 231 229 226 224 221 221 221 221 223 224 223 221 220 222 221 220 224 227 228 229 229 228 228 234
345 347 346 347 350 352 349 326 282 259 252 246 249 234 236 244 243 249 252 250 246 232 229 229 227 223 221 220 221 222 225 224 222 220 220 221 220 224 228 228 226 224 226 231 233
343 344 346 347 347 345 349 345 297 260 245 241 232 228 228 241 241 245 252 252 250 245 234 230 229 226 224 221 220 220 222 224 223 221 220 218 220 222 228 228 227 227 227 229 234
339 341 344 345 348 342 345 339 307 268 247 238 232 225 230 240 243 251 254 258 261 254 241 234 232 229 225 222 220 220 220 224 222 221 221 219 217 221 223 226 227 228 230 232 231
337 336 340 343 347 338 342 326 314 286 253 233 231 229 235 236 242 248 250 252 256 257 254 237 234 232 228 223 223 221 219 221 223 220 220 219 218 221 221 224 227 228 228 230 232
331 334 335 337 343 337 333 330 310 280 266 242 237 234 244 245 244 244 244 243 248 253 259 242 233 233 232 227 223 222 219 219 220 220 220 219 219 219 222 223 225 229 230 230 230
330 332 333 332 338 337 328 329 314 284 270 252 240 237 240 240 241 241 243 242 241 244 249 249 235 232 231 231 226 224 221 219 219 219 218 220 220 219 222 222 224 227 229 231 232
324 327 330 331 334 335 321 322 317 293 271 258 246 241 240 239 242 243 240 237 240 242 245 247 244 236 234 230 230 226 224 220 219 218 218 219 221 221 222 222 224 224 229 229 231
323 324 325 329 330 332 318 315 314 303 280 265 252 245 245 247 252 249 251 249 244 244 243 239 239 239 236 233 230 230 226 222 220 219 217 218 220 220 223 223 224 225 226 230 232
321 321 322 326 328 328 317 311 310 304 287 272 266 255 257 259 259 260 255 252 255 250 245 238 230 233 235 235 231 227 228 224 221 220 219 218 218 219 222 224 226 226 225 229 231
Height
10914 10917 10918 10919 10921 10923 10925 10928 10931 10934 10938 10942 10946 10950 10955 10961 10966 10971 10977 10981 10986 10992 10997 11001 11004 11006 11009 11012 11013 11016 11019 11022 11024 11026 11028 11028 11027 11027 11024 11022 11022 11020 11019 11017 11014
10906 10908 10910 10912 10914 10916 10919 10922 10924 10927 10930 10935 10940 10945 10949 10955 10960 10965 10970 10976 10980 10987 10993 10998 11002 11005 11008 11011 11013 11016 11019 11022 11023 11026 11028 11029 11029 11029 11027 11025 11023 11023 11021 11020 11019
10901 10901 10902 10903 10905 10907 10909 10912 10915 10918 10921 10927 10932 10938 10942 10947 10953 10958 10964 10969 10973 10980 10987 10993 10999 11003 11006 11009 11012 11015 11017 11020 11022 11025 11028 11028 11030 11031 11029 11029 11026 11025 11025 11022 11021
10898 10897 10896 10896 10898 10899 10901 10904 10906 10909 10912 10917 10922 10928 10933 10939 10945 10949 10958 10963 10968 10973 10981 10987 10995 11000 11003 11006 11009 11012 11013 11017 11021 11024 11027 11027 11030 11032 11031 11031 11030 11028 11027 11026 11024
10896 10894 10892 10891 10889 10890 10891 10894 10897 10900 10902 10906 10911 10917 10923 10929 10935 10941 10949 10955 10961 10965 10973 10980 10987 10995 10998 11002 11005 11008 11010 11014 11018 11022 11025 11027 11027 11031 11032 11032 11032 11032 11030 11029 11026
10892 10890 10888 10885 10883 10883 10882 10883 10886 10889 10893 10896 10900 10905 10911 10917 10923 10931 10939 10947 10952 10957 10964 10974 10981 10987 10992 10997 11000 11003 11008 11011 11016 11018 11022 11025 11026 11029 11031 11033 11033 11032 11032 11030 11029
10889 10886 10883 10879 10876 10874 10872 10872 10874 10877 10881 10885 10889 10894 10899 10904 10912 10919 10928 10935 10943 10948 10956 10965 10971 10977 10984 10990 10993 10997 11003 11008 11012 11016 11021 11024 11026 11027 11029 11032 11033 11033 11033 11033 11031
10886 10881 10878 10874 10871 10867 10864 10862 10863 10865 10868 10872 10875 10881 10886 10892 10898 10906 10914 10923 10931 10938 10945 10953 10960 10967 10975 10981 10985 10991 10998 11005 11009 11015 11019 11024 11026 11027 11027 11031 11032 11033 11033 11034 11034
10881 10877 10872 10866 10862 10859 10857 10855 10853 10853 10854 10857 10861 10866 10872 10878 10885 10891 10899 10909 10918 10927 10934 10942 10947 10955 10963 10970 10977 10984 10990 10997 11005 11010 11014 11017 11022 11026 11028 11030 11032 11032 11032 11033 11034
10874 10869 10862 10858 10853 10849 10846 10844 10842 10841 10841 10843 10846 10850 10856 10861 10869 10878 10885 10894 10904 10913 10921 10928 10936 10942 10950 10957 10967 10975 10981 10989 10997 11004 11009 11012 11017 11022 11025 11027 11030 11031 11031 11032 11034
10869 10861 10853 10847 10841 10838 10835 10833 10831 10830 10829 10829 10833 10836 10838 10844 10851 10861 10870 10879 10889 10899 10907 10913 10920 10924 10933 10947 10956 10965 10973 10981 10988 10995 11002 11008 11012 11017 11021 11024 11028 11030 11030 11030 11032
10862 10853 10846 10837 10830 10826 10823 10820 10819 10818 10817 10818 10819 10822 10824 10828 10834 10842 10853 10863 10873 10883 10891 10897 10901 10912 10923 10935 10945 10953 10961 10971 10979 10985 10994 11000 11006 11010 11015 11018 11023 11026 11028 11029 11031
10854 10845 10836 10827 10818 10812 10808 10807 10805 10804 10804 10806 10807 10809 10812 10815 10820 10826 10834 10844 10857 10867 10874 10879 10887 10899 10908 10920 10932 10941 10950 10958 10969 10978 10984 10992 10998 11002 11007 11012 11016 11020 11023 11026 11028
10846 10838 10827 10817 10806 10798 10793 10790 10789 10789 10791 10793 10794 10796 10798 10802 10806 10811 10817 10826 10836 10848 10856 10864 10874 10885 10894 10905 10915 10926 10935 10946 10957 10968 10974 10981 10988 10993 10999 11005 11009 11013 11017 11021 11024
10836 10827 10818 10807 10793 10783 10777 10772 10773 10774 10777 10779 10781 10783 10785 10790 10793 10797 10801 10809 10817 10827 10837 10847 10859 10869 10880 10888 10897 10908 10920 10934 10946 10955 10961 10973 10980 10985 10990 10994 10999 11006 11010 11015 11020
10826 10816 10807 10796 10784 10771 10761 10756 10756 10758 10763 10765 10767 10770 10773 10777 10781 10784 10787 10793 10801 10808 10818 10831 10843 10853 10863 10872 10880 10891 10906 10922 10932 10942 10951 10962 10970 10977 10978 10983 10993 10997 11002 11008 11013
10815 10804 10794 10784 10773 10759 10746 10740 10739 10742 10747 10751 10753 10757 10761 10765 10768 10772 10776 10779 10786 10792 10800 10812 10824 10834 10844 10856 10866 10873 10887 10904 10918 10930 10944 10949 10959 10963 10965 10973 10983 10990 10997 11001 11006
10804 10793 10783 10772 10763 10749 10734 10722 10723 10727 10732 10736 10741 10745 10748 10752 10756 10761 10766 10768 10771 10778 10785 10793 10804 10814 10824 10839 10849 10854 10867 10885 10902 10918 10928 10935 10951 10948 10951 10964 10973 10979 10987 10992 10996
10793 10784 10772 10759 10752 10738 10724 10715 10711 10714 10717 10723 10728 10732 10737 10741 10745 10749 10755 10759 10760 10763 10769 10776 10785 10795 10804 10818 10830 10843 10852 10865 10883 10898 10912 10925 10935 10933 10944 10952 10959 10969 10975 10980 10987
10783 10773 10763 10749 10739 10730 10718 10709 10703 10703 10705 10709 10715 10720 10725 10729 10733 10737 10742 10746 10749 10751 10755 10761 10767 10776 10786 10799 10810 10825 10835 10844 10864 10882 10898 10911 10922 10925 10926 10938 10947 10955 10962 10971 10978
10771 10762 10753 10741 10728 10720 10711 10702 10697 10695 10696 10700 10704 10709 10715 10718 10722 10726 10730 10732 10735 10739 10742 10745 10751 10759 10767 10779 10789 10804 10818 10828 10846 10863 10882 10896 10908 10899 10912 10924 10930 10940 10950 10960 10968
10761 10752 10743 10732 10723 10712 10704 10697 10691 10689 10689 10690 10693 10699 10704 10709 10712 10714 10716 10718 10720 10723 10728 10731 10736 10742 10751 10759 10770 10786 10801 10813 10827 10846 10862 10877 10889 10889 10899 10909 10915 10925 10936 10946 10956
10751 10743 10734 10724 10715 10706 10697 10691 10685 10683 10683 10684 10686 10690 10693 10695 10697 10699 10702 10704 10705 10708 10712 10716 10721 10726 10735 10743 10752 10761 10777 10793 10810 10828 10843 10856 10868 10877 10881 10894 10903 10913 10923 10933 10943
10741 10733 10724 10715 10705 10697 10689 10682 10679 10674 10674 10676 10677 10678 10679 10681 10682 10685 10687 10690 10693 10694 10697 10700 10705 10709 10717 10724 10731 10740 10756 10774 10788 10806 10823 10835 10841 10856 10863 10880 10890 10898 10909 10920 10931
10728 10720 10712 10704 10695 10688 10677 10670 10668 10665 10663 10663 10665 10666 10666 10668 10669 10670 10672 10674 10676 10678 10680 10684 10688 10692 10697 10707 10715 10724 10734 10753 10768 10786 10803 10813 10823 10842 10851 10864 10875 10887 10894 10906 10918
10715 10706 10699 10692 10685 10677 10668 10661 10655 10653 10651 10650 10650 10652 10654 10654 10653 10653 10656 10657 10659 10660 10663 10666 10669 10672 10677 10685 10695 10706 10716 10732 10750 10767 10784 10794 10809 10827 10833 10848 10859 10872 10884 10892 10903
10701 10692 10682 10675 10670 10664 10657 10648 10643 10640 10638 10637 10636 10637 10637 10636 10635 10634 10636 10638 10639 10640 10642 10645 10647 10651 10657 10662 10674 10685 10700 10713 10727 10745 10761 10775 10796 10809 10818 10831 10843 10855 10870 10879 10890